This is the latest recevied weather packets stored in our database for station/object KD9JJA. If no packets are shown the sender has not sent any weather packets the latest 10 day(s).
| Time | Temp. | Humidity | Pressure | Rain* | Wind** | Luminosity | Snow |
|---|---|---|---|---|---|---|---|
| 1777889367 | 14.44° C | 77% | 1010.4 hPa | 0 mm | - | 0 W/m² | - |
| 1777889065 | 14.44° C | 77% | 1010.1 hPa | 0 mm | - | 0 W/m² | - |
| 1777888762 | 13.89° C | 78% | 1010.1 hPa | 0 mm | - | 0 W/m² | - |
| 1777888459 | 13.89° C | 78% | 1010.2 hPa | 0 mm | - | 0 W/m² | - |
| 1777888154 | 13.89° C | 79% | 1010.2 hPa | 0 mm | - | 0 W/m² | - |
| 1777887852 | 13.89° C | 77% | 1010.4 hPa | 0 mm | - | 0 W/m² | - |
| 1777887549 | 13.89° C | 77% | 1010.3 hPa | 0 mm | - | 0 W/m² | - |
| 1777887244 | 13.89° C | 77% | 1010.4 hPa | 0 mm | - | 0 W/m² | - |
| 1777886940 | 13.89° C | 75% | 1010.4 hPa | 0 mm | - | 0 W/m² | - |
| 1777886636 | 13.89° C | 76% | 1010.4 hPa | 0 mm | - | 0 W/m² | - |
| 1777886334 | 13.89° C | 75% | 1010.3 hPa | 0 mm | - | 0 W/m² | - |
| 1777886031 | 13.89° C | 74% | 1010.3 hPa | 0 mm | - | 0 W/m² | - |
| 1777885730 | 13.89° C | 76% | 1010.5 hPa | 0 mm | - | 0 W/m² | - |
| 1777885427 | 13.89° C | 74% | 1010.6 hPa | 0 mm | - | 0 W/m² | - |
| 1777885126 | 13.33° C | 74% | 1010.6 hPa | 0 mm | - | 0 W/m² | - |
| 1777884822 | 12.78° C | 75% | 1010.8 hPa | 0 mm | - | 0 W/m² | - |
| 1777884519 | 12.78° C | 76% | 1010.7 hPa | 0 mm | - | 0 W/m² | - |
| 1777884216 | 11.67° C | 79% | 1010.9 hPa | 0 mm | - | 0 W/m² | - |
| 1777883912 | 11.11° C | 85% | 1011 hPa | 0 mm | - | 0 W/m² | - |
| 1777883609 | 11.67° C | 87% | 1010.7 hPa | 0 mm | - | 0 W/m² | - |
| 1777883305 | 11.67° C | 87% | 1010.8 hPa | 0 mm | - | 0 W/m² | - |
| 1777883001 | 11.67° C | 83% | 1011 hPa | 0 mm | - | 0 W/m² | - |
| 1777882698 | 11.11° C | 81% | 1011.1 hPa | 0 mm | - | 0 W/m² | - |
| 1777882395 | 11.67° C | 79% | 1011 hPa | 0 mm | - | 0 W/m² | - |
| 1777882091 | 11.67° C | 80% | 1011.1 hPa | 0 mm | - | 0 W/m² | - |
* Rain latest hour (hover to see other rain measurements)
** Current wind speed in m/s (hover to see current wind gust speed)